Главная страница
METAR-TAF:

METAR-TAF

Аэропорты :

Butler, Пенсильвания, США

широта: 40-47N, долгота: 079-57W, высота над уровнем моря: 380 м

Текущие метеонаблюдения

Эта сводка был подготовлена 52 минут назад, в 05:56 UTC
Ветер 9 Узел от восточный
Температура -2°C
Влажность 69%
Давление 1029 hPa
Видимость: 16.1 км
ясное небо

METAR: KBTP 150556Z AUTO 08009KT 10SM CLR M02/M07 A3040 RMK AO2 SLP316 T10221067 11022 21033 58021 FZRANO

Время: 01:48 (06:48 UTC)


TAF: отсутствует

Метеонаблюдения и прогнозы для более 4000 аэропортов (сводки METAR и TAF).

Имеющиеся станции представлены на карте желтыми и красными точками.

Чтобы увидеть название станции, наведите на нее мышь.

Затем щелкните, чтобы увидеть метеонаблюдения и метеопрогнозы.

Управление картой: чтобы увеличить масштаб, щелкните зеленые кнопки с черным крестиком; чтобы уменьшить масштаб, щелкните зеленую кнопку с тире; для просмотра соседних карт щелкайте зеленые стрелки.


METAR-TAF: